Time,TemperatureF,DewpointF,PressureIn,WindDirection,WindDirectionDegrees,WindSpeedMPH,WindSpeedGustMPH,Humidity,HourlyPrecipIn,Conditions,Clouds,dailyrainin,SoftwareType,DateUTC
2013-02-09 00:00:00,29.4,25.4,30.36,NNW,332,0.7,3.5,85,0.00,OVC,,0.00,WeatherDisplay:10.37,2013-02-09 06:00:00,
2013-02-09 00:05:00,29.3,25.4,30.36,NNW,331,0.0,1.1,85,0.00,OVC,,0.00,WeatherDisplay:10.37,2013-02-09 06:05:00,
2013-02-09 00:10:00,29.3,25.4,30.36,NNW,331,0.6,1.1,85,0.00,OVC,,0.00,WeatherDisplay:10.37,2013-02-09 06:10:00,
2013-02-09 00:15:00,29.3,25.4,30.36,NNW,331,3.8,4.6,85,0.00,OVC,,0.00,WeatherDisplay:10.37,2013-02-09 06:15:00,
2013-02-09 00:20:00,29.1,25.4,30.36,NNW,331,2.8,3.5,86,0.00,OVC,,0.00,WeatherDisplay:10.37,2013-02-09 06:20:00,
2013-02-09 00:25:00,29.1,25.4,30.36,NNW,331,2.3,4.6,86,0.00,OVC,,0.00,WeatherDisplay:10.37,2013-02-09 06:25:00,
2013-02-09 00:30:00,29.1,25.4,30.36,NNW,331,0.4,1.1,86,0.00,OVC,,0.00,WeatherDisplay:10.37,2013-02-09 06:30:00,
2013-02-09 00:35:00,29.1,25.4,30.36,NNW,331,0.1,1.1,86,0.00,OVC,,0.00,WeatherDisplay:10.37,2013-02-09 06:35:00,
2013-02-09 00:40:00,29.0,25.3,30.36,NNW,331,2.5,3.5,86,0.00,OVC,,0.00,WeatherDisplay:10.37,2013-02-09 06:40:00,
2013-02-09 00:45:00,29.0,25.3,30.35,North,355,2.7,4.6,86,0.00,OVC,,0.00,WeatherDisplay:10.37,2013-02-09 06:45:00,
2013-02-09 00:50:00,29.0,25.3,30.35,NNW,340,6.3,6.3,86,0.00,OVC,,0.00,WeatherDisplay:10.37,2013-02-09 06:50:00,
2013-02-09 00:55:00,28.8,25.1,30.36,NNW,340,2.0,0.0,86,0.00,OVC,,0.00,WeatherDisplay:10.37,2013-02-09 06:55:00,
2013-02-09 01:00:00,28.8,25.4,30.36,NNW,340,1.6,0.0,87,0.00,OVC,,0.00,WeatherDisplay:10.37,2013-02-09 07:00:00,
2013-02-09 01:05:00,28.8,25.4,30.36,NNW,340,0.5,1.5,87,0.00,OVC,,0.00,WeatherDisplay:10.37,2013-02-09 07:05:00,
2013-02-09 01:10:00,28.8,25.4,30.35,NNW,340,0.0,0.0,87,0.00,OVC,,0.00,WeatherDisplay:10.37,2013-02-09 07:10:00,
2013-02-09 01:15:00,28.8,25.4,30.35,NNW,340,0.5,3.5,87,0.00,OVC,,0.00,WeatherDisplay:10.37,2013-02-09 07:15:00,
2013-02-09 01:20:00,28.7,25.3,30.35,NNW,340,0.9,1.1,87,0.00,OVC,,0.00,WeatherDisplay:10.37,2013-02-09 07:20:00,
2013-02-09 01:25:00,28.7,25.3,30.35,NNW,340,0.0,0.0,87,0.00,OVC,,0.00,WeatherDisplay:10.37,2013-02-09 07:25:00,
2013-02-09 01:30:00,28.5,25.1,30.36,NNW,340,0.0,0.0,87,0.00,OVC,,0.00,WeatherDisplay:10.37,2013-02-09 07:30:00,
2013-02-09 01:35:00,28.5,25.1,30.35,NNW,340,0.0,0.0,87,0.00,OVC,,0.00,WeatherDisplay:10.37,2013-02-09 07:35:00,
2013-02-09 01:40:00,28.4,25.0,30.35,NNW,340,0.0,0.0,87,0.00,OVC,,0.00,WeatherDisplay:10.37,2013-02-09 07:40:00,
2013-02-09 01:45:00,28.4,25.0,30.35,NNW,340,0.1,3.5,87,0.00,OVC,,0.00,WeatherDisplay:10.37,2013-02-09 07:45:00,
2013-02-09 01:50:00,28.4,25.0,30.35,NNW,340,1.4,3.5,87,0.00,OVC,,0.00,WeatherDisplay:10.37,2013-02-09 07:50:00,
2013-02-09 01:55:00,28.2,24.8,30.34,NNW,340,0.0,0.0,87,0.00,OVC,,0.00,WeatherDisplay:10.37,2013-02-09 07:55:00,
2013-02-09 02:00:00,28.2,24.8,30.34,NNW,340,0.0,1.1,87,0.00,OVC,,0.00,WeatherDisplay:10.37,2013-02-09 08:00:00,
2013-02-09 02:05:00,28.2,24.8,30.34,NNW,340,0.0,0.0,87,0.00,OVC,,0.00,WeatherDisplay:10.37,2013-02-09 08:05:00,
2013-02-09 02:10:00,28.2,24.8,30.34,NNW,340,0.3,1.1,87,0.00,OVC,,0.00,WeatherDisplay:10.37,2013-02-09 08:10:00,
2013-02-09 02:15:00,28.2,24.8,30.34,NNW,340,0.0,0.0,87,0.00,OVC,,0.00,WeatherDisplay:10.37,2013-02-09 08:15:00,
2013-02-09 02:20:00,28.2,24.8,30.34,NNW,340,0.5,1.5,87,0.00,OVC,,0.00,WeatherDisplay:10.37,2013-02-09 08:20:00,
2013-02-09 02:25:00,28.2,25.1,30.35,NNW,340,0.1,1.5,88,0.00,OVC,,0.00,WeatherDisplay:10.37,2013-02-09 08:25:00,
2013-02-09 02:30:00,28.2,25.1,30.35,NNW,340,0.0,0.0,88,0.00,OVC,,0.00,WeatherDisplay:10.37,2013-02-09 08:30:00,
2013-02-09 02:35:00,28.2,25.1,30.35,NNW,340,0.0,0.0,88,0.00,OVC,,0.00,WeatherDisplay:10.37,2013-02-09 08:35:00,
2013-02-09 02:40:00,28.2,25.1,30.35,NNW,340,0.0,0.0,88,0.00,OVC,,0.00,WeatherDisplay:10.37,2013-02-09 08:40:00,
2013-02-09 02:46:00,28.4,25.3,30.36,NNW,340,0.0,1.1,88,0.00,OVC,,0.00,WeatherDisplay:10.37,2013-02-09 08:46:00,
2013-02-09 02:51:00,28.2,25.1,30.36,NNW,340,0.0,0.0,88,0.00,OVC,,0.00,WeatherDisplay:10.37,2013-02-09 08:51:00,
2013-02-09 02:56:00,28.2,25.1,30.35,NNW,340,0.0,0.0,88,0.00,OVC,,0.00,WeatherDisplay:10.37,2013-02-09 08:56:00,
2013-02-09 03:01:00,28.4,25.3,30.35,NNW,340,0.0,0.0,88,0.00,OVC,,0.00,WeatherDisplay:10.37,2013-02-09 09:01:00,
2013-02-09 03:06:00,28.4,25.3,30.35,NNW,340,0.0,0.0,88,0.00,OVC,,0.00,WeatherDisplay:10.37,2013-02-09 09:06:00,
2013-02-09 03:11:00,28.5,25.4,30.36,NNW,340,0.0,0.0,88,0.00,OVC,,0.00,WeatherDisplay:10.37,2013-02-09 09:11:00,
2013-02-09 03:16:00,28.5,25.4,30.36,NNW,340,0.0,0.0,88,0.00,OVC,,0.00,WeatherDisplay:10.37,2013-02-09 09:16:00,
2013-02-09 03:21:00,28.4,25.3,30.35,NNW,340,0.0,0.0,88,0.00,OVC,,0.00,WeatherDisplay:10.37,2013-02-09 09:21:00,
2013-02-09 03:26:00,28.5,25.4,30.35,NNW,340,0.0,0.0,88,0.00,OVC,,0.00,WeatherDisplay:10.37,2013-02-09 09:26:00,
2013-02-09 03:31:00,28.4,25.3,30.35,NNW,340,0.0,0.0,88,0.00,OVC,,0.00,WeatherDisplay:10.37,2013-02-09 09:31:00,
2013-02-09 03:36:00,28.4,25.3,30.35,NNW,340,0.0,0.0,88,0.00,OVC,,0.00,WeatherDisplay:10.37,2013-02-09 09:36:00,
2013-02-09 03:41:00,28.5,25.4,30.36,NNW,340,0.0,0.0,88,0.00,OVC,,0.00,WeatherDisplay:10.37,2013-02-09 09:41:00,
2013-02-09 03:46:00,28.5,25.4,30.36,NNW,340,0.0,0.0,88,0.00,OVC,,0.00,WeatherDisplay:10.37,2013-02-09 09:46:00,
2013-02-09 03:51:00,28.5,25.4,30.36,NNW,340,0.0,0.0,88,0.00,OVC,,0.00,WeatherDisplay:10.37,2013-02-09 09:51:00,
2013-02-09 03:56:00,28.7,25.6,30.36,NNW,340,0.0,0.0,88,0.00,OVC,,0.00,WeatherDisplay:10.37,2013-02-09 09:56:00,
2013-02-09 04:01:00,28.7,25.6,30.36,NNW,340,0.0,0.0,88,0.00,OVC,,0.00,WeatherDisplay:10.37,2013-02-09 10:01:00,
2013-02-09 04:06:00,28.7,25.6,30.36,NNW,340,0.0,0.0,88,0.00,OVC,,0.00,WeatherDisplay:10.37,2013-02-09 10:06:00,
2013-02-09 04:11:00,28.7,25.6,30.36,NNW,340,0.0,0.0,88,0.00,OVC,,0.00,WeatherDisplay:10.37,2013-02-09 10:11:00,
2013-02-09 04:16:00,28.7,25.6,30.36,NE,34,2.0,4.6,88,0.00,OVC,,0.00,WeatherDisplay:10.37,2013-02-09 10:16:00,
2013-02-09 04:21:00,28.7,25.3,30.36,NE,34,0.8,1.1,87,0.00,OVC,,0.00,WeatherDisplay:10.37,2013-02-09 10:21:00,
2013-02-09 04:26:00,28.8,25.1,30.36,NE,34,0.4,1.1,86,0.00,OVC,,0.00,WeatherDisplay:10.37,2013-02-09 10:26:00,
2013-02-09 04:31:00,28.8,24.6,30.35,NE,34,0.6,1.1,84,0.00,OVC,,0.00,WeatherDisplay:10.37,2013-02-09 10:31:00,
2013-02-09 04:36:00,29.0,24.5,30.36,NE,34,0.9,1.1,83,0.00,OVC,,0.00,WeatherDisplay:10.37,2013-02-09 10:36:00,
2013-02-09 04:41:00,29.0,24.2,30.36,NE,34,0.3,1.1,82,0.00,OVC,,0.00,WeatherDisplay:10.37,2013-02-09 10:41:00,
2013-02-09 04:46:00,29.0,24.2,30.36,NE,34,2.8,3.5,82,0.00,OVC,,0.00,WeatherDisplay:10.37,2013-02-09 10:46:00,
2013-02-09 04:51:00,29.0,23.6,30.36,NE,36,1.4,1.4,80,0.00,OVC,,0.00,WeatherDisplay:10.37,2013-02-09 10:51:00,
2013-02-09 04:56:00,29.0,23.3,30.36,SE,131,1.8,3.5,79,0.00,OVC,,0.00,WeatherDisplay:10.37,2013-02-09 10:56:00,
2013-02-09 05:01:00,29.0,23.3,30.36,SE,131,0.8,1.1,79,0.00,OVC,,0.00,WeatherDisplay:10.37,2013-02-09 11:01:00,
2013-02-09 05:06:00,29.1,23.4,30.37,SE,131,0.0,0.0,79,0.00,OVC,,0.00,WeatherDisplay:10.37,2013-02-09 11:06:00,
2013-02-09 05:11:00,29.1,23.1,30.37,ESE,116,2.6,4.6,78,0.00,OVC,,0.00,WeatherDisplay:10.37,2013-02-09 11:11:00,
2013-02-09 05:16:00,29.1,23.1,30.36,ESE,116,1.0,3.5,78,0.00,OVC,,0.00,WeatherDisplay:10.37,2013-02-09 11:16:00,
2013-02-09 05:21:00,29.1,22.8,30.36,SSE,153,0.0,0.0,77,0.00,OVC,,0.00,WeatherDisplay:10.37,2013-02-09 11:21:00,
2013-02-09 05:26:00,29.0,22.7,30.36,SSE,153,0.0,1.1,77,0.00,OVC,,0.00,WeatherDisplay:10.37,2013-02-09 11:26:00,
2013-02-09 05:31:00,29.1,22.5,30.36,SSE,147,1.6,4.6,76,0.00,OVC,,0.00,WeatherDisplay:10.37,2013-02-09 11:31:00,
2013-02-09 05:36:00,29.1,22.8,30.37,ESE,110,3.9,5.8,77,0.00,OVC,,0.00,WeatherDisplay:10.37,2013-02-09 11:36:00,
2013-02-09 05:41:00,29.1,22.8,30.37,ESE,110,1.2,1.5,77,0.00,OVC,,0.00,WeatherDisplay:10.37,2013-02-09 11:41:00,
2013-02-09 05:46:00,29.0,22.4,30.37,ESE,110,1.6,1.6,76,0.00,OVC,,0.00,WeatherDisplay:10.37,2013-02-09 11:46:00,
2013-02-09 05:51:00,29.0,22.4,30.36,SE,142,4.7,8.1,76,0.00,OVC,,0.00,WeatherDisplay:10.37,2013-02-09 11:51:00,
2013-02-09 05:56:00,29.0,22.4,30.36,SSE,165,2.9,4.6,76,0.00,OVC,,0.00,WeatherDisplay:10.37,2013-02-09 11:56:00,
2013-02-09 06:01:00,29.0,22.4,30.37,SSE,150,2.1,3.5,76,0.00,OVC,,0.00,WeatherDisplay:10.37,2013-02-09 12:01:00,
2013-02-09 06:06:00,29.0,22.7,30.37,SSE,150,1.4,3.5,77,0.00,OVC,,0.00,WeatherDisplay:10.37,2013-02-09 12:06:00,
2013-02-09 06:11:00,29.1,22.8,30.37,SSE,150,3.3,4.5,77,0.00,OVC,,0.00,WeatherDisplay:10.37,2013-02-09 12:11:00,
2013-02-09 06:16:00,29.1,22.8,30.37,SSE,150,2.8,4.5,77,0.00,OVC,,0.00,WeatherDisplay:10.37,2013-02-09 12:16:00,
2013-02-09 06:21:00,29.1,22.8,30.37,ESE,117,5.3,6.0,77,0.00,OVC,,0.00,WeatherDisplay:10.37,2013-02-09 12:21:00,
2013-02-09 06:26:00,29.0,22.7,30.37,SE,139,5.5,5.8,77,0.00,OVC,,0.00,WeatherDisplay:10.37,2013-02-09 12:26:00,
2013-02-09 06:31:00,29.0,22.4,30.37,SSE,153,9.0,9.0,76,0.00,OVC,,0.00,WeatherDisplay:10.37,2013-02-09 12:31:00,
2013-02-09 06:36:00,28.8,22.2,30.37,SSE,149,10.7,10.7,76,0.00,OVC,,0.00,WeatherDisplay:10.37,2013-02-09 12:36:00,
2013-02-09 06:41:00,28.8,22.2,30.37,ESE,115,4.4,5.8,76,0.00,OVC,,0.00,WeatherDisplay:10.37,2013-02-09 12:41:00,
2013-02-09 06:46:00,28.8,22.2,30.37,SE,144,6.7,6.7,76,0.00,OVC,,0.00,WeatherDisplay:10.37,2013-02-09 12:46:00,
2013-02-09 06:51:00,28.8,22.5,30.37,SE,144,1.0,3.0,77,0.00,OVC,,0.00,WeatherDisplay:10.37,2013-02-09 12:51:00,
2013-02-09 06:56:00,28.8,22.5,30.37,SE,126,4.1,4.1,77,0.00,OVC,,0.00,WeatherDisplay:10.37,2013-02-09 12:56:00,
2013-02-09 07:01:00,28.8,22.5,30.37,SE,126,0.3,3.5,77,0.00,OVC,,0.00,WeatherDisplay:10.37,2013-02-09 13:01:00,
2013-02-09 07:06:00,28.8,22.5,30.37,ESE,111,4.2,5.8,77,0.00,OVC,,0.00,WeatherDisplay:10.37,2013-02-09 13:06:00,
2013-02-09 07:11:00,29.0,22.7,30.36,ESE,110,3.5,4.6,77,0.00,OVC,,0.00,WeatherDisplay:10.37,2013-02-09 13:11:00,
2013-02-09 07:16:00,28.8,22.5,30.36,SE,127,6.9,6.9,77,0.00,OVC,,0.00,WeatherDisplay:10.37,2013-02-09 13:16:00,
2013-02-09 07:21:00,28.8,22.2,30.36,SE,138,12.5,13.8,76,0.00,OVC,,0.00,WeatherDisplay:10.37,2013-02-09 13:21:00,
2013-02-09 07:26:00,28.8,22.2,30.36,SE,126,5.4,8.1,76,0.00,OVC,,0.00,WeatherDisplay:10.37,2013-02-09 13:26:00,
2013-02-09 07:31:00,29.0,22.7,30.36,ESE,114,5.3,8.1,77,0.00,OVC,,0.00,WeatherDisplay:10.37,2013-02-09 13:31:00,
2013-02-09 07:36:00,29.0,22.7,30.36,ESE,123,5.5,5.8,77,0.00,OVC,,0.00,WeatherDisplay:10.37,2013-02-09 13:36:00,
2013-02-09 07:41:00,29.0,22.7,30.36,ESE,118,6.9,8.1,77,0.00,OVC,,0.00,WeatherDisplay:10.37,2013-02-09 13:41:00,
2013-02-09 07:46:00,29.0,22.7,30.36,SE,124,7.5,9.2,77,0.00,OVC,,0.00,WeatherDisplay:10.37,2013-02-09 13:46:00,
2013-02-09 07:51:00,29.1,22.8,30.36,SE,140,5.6,5.8,77,0.00,OVC,,0.00,WeatherDisplay:10.37,2013-02-09 13:51:00,
2013-02-09 07:56:00,29.1,22.8,30.36,ESE,111,6.8,6.8,77,0.00,OVC,,0.00,WeatherDisplay:10.37,2013-02-09 13:56:00,
2013-02-09 08:01:00,29.3,23.0,30.35,SE,140,4.2,6.0,77,0.00,OVC,,0.00,WeatherDisplay:10.37,2013-02-09 14:01:00,
2013-02-09 08:06:00,29.3,23.0,30.35,ESE,116,6.4,10.4,77,0.00,OVC,,0.00,WeatherDisplay:10.37,2013-02-09 14:06:00,
2013-02-09 08:11:00,29.3,23.0,30.35,East,101,6.1,6.1,77,0.00,OVC,,0.00,WeatherDisplay:10.37,2013-02-09 14:11:00,
2013-02-09 08:16:00,29.4,23.1,30.35,ESE,104,8.9,10.4,77,0.00,OVC,,0.00,WeatherDisplay:10.37,2013-02-09 14:16:00,
2013-02-09 08:21:00,29.4,23.1,30.34,SE,128,4.2,5.8,77,0.00,OVC,,0.00,WeatherDisplay:10.37,2013-02-09 14:21:00,
2013-02-09 08:26:00,29.5,23.2,30.34,SE,140,7.7,7.7,77,0.00,OVC,,0.00,WeatherDisplay:10.37,2013-02-09 14:26:00,
2013-02-09 08:31:00,29.7,23.4,30.34,ESE,117,4.1,5.8,77,0.00,OVC,,0.00,WeatherDisplay:10.37,2013-02-09 14:31:00,
2013-02-09 08:36:00,29.8,23.5,30.35,SE,128,0.1,4.6,77,0.00,OVC,,0.00,WeatherDisplay:10.37,2013-02-09 14:36:00,
2013-02-09 08:41:00,29.8,23.5,30.35,ESE,122,8.8,9.2,77,0.00,OVC,,0.00,WeatherDisplay:10.37,2013-02-09 14:41:00,
2013-02-09 08:46:00,29.8,23.2,30.35,SE,140,3.5,3.5,76,0.00,OVC,,0.00,WeatherDisplay:10.37,2013-02-09 14:46:00,
2013-02-09 08:51:00,30.0,23.4,30.36,SSE,165,7.8,10.4,76,0.00,OVC,,0.00,WeatherDisplay:10.37,2013-02-09 14:51:00,
2013-02-09 08:56:00,29.8,23.2,30.36,SE,130,11.1,11.1,76,0.00,OVC,,0.00,WeatherDisplay:10.37,2013-02-09 14:56:00,
2013-02-09 09:01:00,29.8,23.2,30.36,ESE,119,6.6,6.6,76,0.00,OVC,,0.00,WeatherDisplay:10.37,2013-02-09 15:01:00,
2013-02-09 09:07:00,30.0,23.4,30.36,SE,136,6.3,8.1,76,0.00,OVC,,0.00,WeatherDisplay:10.37,2013-02-09 15:07:00,
2013-02-09 09:12:00,30.0,23.4,30.36,SE,132,7.2,8.1,76,0.00,OVC,,0.00,WeatherDisplay:10.37,2013-02-09 15:12:00,
2013-02-09 09:17:00,30.1,23.4,30.36,SE,146,2.4,3.5,76,0.00,OVC,,0.00,WeatherDisplay:10.37,2013-02-09 15:17:00,
2013-02-09 09:22:00,30.3,23.6,30.35,SSE,154,4.5,4.6,76,0.00,OVC,,0.00,WeatherDisplay:10.37,2013-02-09 15:22:00,
2013-02-09 09:27:00,30.4,23.4,30.36,SE,145,2.8,4.6,75,0.00,OVC,,0.00,WeatherDisplay:10.37,2013-02-09 15:27:00,
2013-02-09 09:32:00,30.4,23.4,30.36,SE,124,5.4,5.8,75,0.00,OVC,,0.00,WeatherDisplay:10.37,2013-02-09 15:32:00,
2013-02-09 09:37:00,30.6,23.3,30.36,South,186,14.1,14.1,74,0.00,OVC,,0.00,WeatherDisplay:10.37,2013-02-09 15:37:00,
2013-02-09 09:42:00,30.6,23.3,30.36,SE,124,7.6,7.6,74,0.00,OVC,,0.00,WeatherDisplay:10.37,2013-02-09 15:42:00,
2013-02-09 09:47:00,30.7,23.1,30.36,SSE,148,6.9,9.2,73,0.00,OVC,,0.00,WeatherDisplay:10.37,2013-02-09 15:47:00,
2013-02-09 09:52:00,30.7,23.1,30.36,SE,127,5.0,6.0,73,0.00,OVC,,0.00,WeatherDisplay:10.37,2013-02-09 15:52:00,
2013-02-09 09:57:00,31.2,23.2,30.36,SE,128,8.7,8.7,72,0.00,OVC,,0.00,WeatherDisplay:10.37,2013-02-09 15:57:00,
2013-02-09 10:02:00,31.0,22.7,30.35,ESE,113,7.9,7.9,71,0.00,OVC,,0.00,WeatherDisplay:10.37,2013-02-09 16:02:00,
2013-02-09 10:07:00,30.9,22.9,30.35,ESE,121,7.1,9.2,72,0.00,OVC,,0.00,WeatherDisplay:10.37,2013-02-09 16:07:00,
2013-02-09 10:12:00,31.2,23.5,30.35,SE,128,5.0,6.0,73,0.00,OVC,,0.00,WeatherDisplay:10.37,2013-02-09 16:12:00,
2013-02-09 10:17:00,31.5,23.5,30.35,SSE,148,12.5,13.8,72,0.00,OVC,,0.00,WeatherDisplay:10.37,2013-02-09 16:17:00,
2013-02-09 10:22:00,31.6,23.3,30.35,ESE,121,7.6,9.2,71,0.00,OVC,,0.00,WeatherDisplay:10.37,2013-02-09 16:22:00,
2013-02-09 10:27:00,32.2,23.8,30.36,South,171,4.0,4.6,71,0.00,OVC,,0.00,WeatherDisplay:10.37,2013-02-09 16:27:00,
2013-02-09 10:32:00,32.5,23.5,30.36,South,182,9.6,15.0,69,0.00,OVC,,0.00,WeatherDisplay:10.37,2013-02-09 16:32:00,
2013-02-09 10:37:00,32.2,23.5,30.36,SSW,204,2.7,4.6,70,0.00,OVC,,0.00,WeatherDisplay:10.37,2013-02-09 16:37:00,
2013-02-09 10:42:00,33.1,24.0,30.35,East,96,10.4,10.4,69,0.00,OVC,,0.00,WeatherDisplay:10.37,2013-02-09 16:42:00,
2013-02-09 10:47:00,33.4,24.3,30.35,SSE,148,8.9,9.2,69,0.00,OVC,,0.00,WeatherDisplay:10.37,2013-02-09 16:47:00,
2013-02-09 10:52:00,33.4,23.6,30.35,SE,126,16.2,16.2,67,0.00,BKN,,0.00,WeatherDisplay:10.37,2013-02-09 16:52:00,
2013-02-09 10:57:00,32.9,23.5,30.34,SSE,148,8.2,8.2,68,0.00,BKN,,0.00,WeatherDisplay:10.37,2013-02-09 16:57:00,
2013-02-09 11:02:00,33.4,24.3,30.34,SSW,207,2.9,9.0,69,0.00,BKN,,0.00,WeatherDisplay:10.37,2013-02-09 17:02:00,
2013-02-09 11:07:00,34.0,24.5,30.34,SE,131,6.8,8.1,68,0.00,BKN,,0.00,WeatherDisplay:10.37,2013-02-09 17:07:00,
2013-02-09 11:12:00,33.8,24.4,30.34,SE,146,5.7,5.8,68,0.00,SCT,,0.00,WeatherDisplay:10.37,2013-02-09 17:12:00,
2013-02-09 11:17:00,33.7,24.3,30.34,South,182,1.6,3.5,68,0.00,SCT,,0.00,WeatherDisplay:10.37,2013-02-09 17:17:00,
2013-02-09 11:22:00,33.8,24.4,30.34,South,188,4.6,5.8,68,0.00,SCT,,0.00,WeatherDisplay:10.37,2013-02-09 17:22:00,
2013-02-09 11:27:00,34.4,24.2,30.34,SE,140,11.8,11.8,66,0.00,SCT,,0.00,WeatherDisplay:10.37,2013-02-09 17:27:00,
2013-02-09 11:32:00,34.6,24.8,30.33,SSE,148,2.8,3.5,67,0.00,SCT,,0.00,WeatherDisplay:10.37,2013-02-09 17:32:00,
2013-02-09 11:37:00,35.0,24.8,30.33,SSE,157,7.1,7.1,66,0.00,SCT,,0.00,WeatherDisplay:10.37,2013-02-09 17:37:00,
2013-02-09 11:42:00,34.3,24.1,30.33,South,173,5.9,5.9,66,0.00,SCT,,0.00,WeatherDisplay:10.37,2013-02-09 17:42:00,
2013-02-09 11:47:00,34.3,24.5,30.32,SSE,148,12.6,15.0,67,0.00,SCT,,0.00,WeatherDisplay:10.37,2013-02-09 17:47:00,
2013-02-09 11:52:00,34.3,24.8,30.32,SSE,165,6.5,9.2,68,0.00,SCT,,0.00,WeatherDisplay:10.37,2013-02-09 17:52:00,
2013-02-09 11:57:00,34.3,24.8,30.31,SE,130,10.2,10.4,68,0.00,SCT,,0.00,WeatherDisplay:10.37,2013-02-09 17:57:00,
2013-02-09 12:02:00,35.0,25.9,30.30,SE,133,7.8,7.8,69,0.00,SCT,,0.00,WeatherDisplay:10.37,2013-02-09 18:02:00,
2013-02-09 12:07:00,35.5,26.0,30.30,ESE,121,6.0,6.0,68,0.00,SCT,,0.00,WeatherDisplay:10.37,2013-02-09 18:07:00,
2013-02-09 12:12:00,35.6,25.4,30.29,ESE,123,5.9,5.9,66,0.00,SCT,,0.00,WeatherDisplay:10.37,2013-02-09 18:12:00,
2013-02-09 12:17:00,35.8,25.5,30.29,ESE,121,6.8,6.8,66,0.00,SCT,,0.00,WeatherDisplay:10.37,2013-02-09 18:17:00,
2013-02-09 12:22:00,35.9,25.6,30.29,SE,126,6.5,8.1,66,0.00,SCT,,0.00,WeatherDisplay:10.37,2013-02-09 18:22:00,
2013-02-09 12:27:00,36.3,25.7,30.28,ESE,115,14.2,14.2,65,0.00,SCT,,0.00,WeatherDisplay:10.37,2013-02-09 18:27:00,
2013-02-09 12:32:00,36.2,25.6,30.28,ESE,113,8.7,9.2,65,0.00,CLR,,0.00,WeatherDisplay:10.37,2013-02-09 18:32:00,
2013-02-09 12:37:00,36.3,25.3,30.28,SE,137,5.8,5.8,64,0.00,CLR,,0.00,WeatherDisplay:10.37,2013-02-09 18:37:00,
2013-02-09 12:42:00,36.5,25.8,30.27,ESE,122,4.9,8.1,65,0.00,CLR,,0.00,WeatherDisplay:10.37,2013-02-09 18:42:00,
2013-02-09 12:47:00,36.6,25.9,30.27,ESE,109,7.0,7.0,65,0.00,CLR,,0.00,WeatherDisplay:10.37,2013-02-09 18:47:00,
2013-02-09 12:52:00,36.8,26.1,30.27,ESE,115,7.8,7.8,65,0.00,CLR,,0.00,WeatherDisplay:10.37,2013-02-09 18:52:00,
2013-02-09 12:57:00,37.3,26.2,30.27,South,190,3.3,8.1,64,0.00,CLR,,0.00,WeatherDisplay:10.37,2013-02-09 18:57:00,
2013-02-09 13:02:00,37.3,26.2,30.26,SE,134,2.5,2.5,64,0.00,CLR,,0.00,WeatherDisplay:10.37,2013-02-09 19:02:00,
2013-02-09 13:07:00,37.9,26.8,30.26,SE,137,4.6,4.6,64,0.00,CLR,,0.00,WeatherDisplay:10.37,2013-02-09 19:07:00,
2013-02-09 13:12:00,37.9,26.4,30.26,ENE,75,1.6,4.6,63,0.00,CLR,,0.00,WeatherDisplay:10.37,2013-02-09 19:12:00,
2013-02-09 13:17:00,38.2,26.7,30.26,SE,142,2.8,4.6,63,0.00,CLR,,0.00,WeatherDisplay:10.37,2013-02-09 19:17:00,
2013-02-09 13:22:00,38.3,26.0,30.26,SSE,153,9.2,9.2,61,0.00,CLR,,0.00,WeatherDisplay:10.37,2013-02-09 19:22:00,
2013-02-09 13:27:00,38.2,26.3,30.26,ESE,120,7.4,7.4,62,0.00,CLR,,0.00,WeatherDisplay:10.37,2013-02-09 19:27:00,
2013-02-09 13:32:00,38.2,26.3,30.26,ENE,78,8.3,8.3,62,0.00,CLR,,0.00,WeatherDisplay:10.37,2013-02-09 19:32:00,
2013-02-09 13:37:00,38.3,26.4,30.25,SSE,155,3.1,5.8,62,0.00,CLR,,0.00,WeatherDisplay:10.37,2013-02-09 19:37:00,
2013-02-09 13:42:00,38.5,26.2,30.25,ENE,78,7.5,7.5,61,0.00,CLR,,0.00,WeatherDisplay:10.37,2013-02-09 19:42:00,
2013-02-09 13:47:00,38.5,26.6,30.25,SSE,156,4.3,4.6,62,0.00,CLR,,0.00,WeatherDisplay:10.37,2013-02-09 19:47:00,
2013-02-09 13:52:00,38.9,27.0,30.25,SSE,152,2.4,3.5,62,0.00,CLR,,0.00,WeatherDisplay:10.37,2013-02-09 19:52:00,
2013-02-09 13:57:00,39.2,26.9,30.26,SE,128,3.4,5.8,61,0.00,CLR,,0.00,WeatherDisplay:10.37,2013-02-09 19:57:00,
2013-02-09 14:02:00,39.3,27.0,30.26,SSE,152,5.7,9.2,61,0.00,CLR,,0.00,WeatherDisplay:10.37,2013-02-09 20:02:00,
2013-02-09 14:07:00,39.5,27.2,30.25,North,355,1.5,3.5,61,0.00,CLR,,0.00,WeatherDisplay:10.37,2013-02-09 20:07:00,
2013-02-09 14:12:00,40.1,27.7,30.24,NNE,32,2.9,4.6,61,0.00,CLR,,0.00,WeatherDisplay:10.37,2013-02-09 20:12:00,
2013-02-09 14:17:00,40.3,27.9,30.24,ENE,65,0.0,1.1,61,0.00,CLR,,0.00,WeatherDisplay:10.37,2013-02-09 20:17:00,
2013-02-09 14:23:00,40.5,27.7,30.24,ENE,76,0.0,1.5,60,0.00,CLR,,0.00,WeatherDisplay:10.37,2013-02-09 20:23:00,
2013-02-09 14:28:00,40.6,27.8,30.24,SSE,164,4.9,4.9,60,0.00,CLR,,0.00,WeatherDisplay:10.37,2013-02-09 20:28:00,
2013-02-09 14:33:00,40.6,27.4,30.24,East,82,4.9,6.0,59,0.00,CLR,,0.00,WeatherDisplay:10.37,2013-02-09 20:33:00,
2013-02-09 14:38:00,40.3,27.9,30.23,SE,132,12.4,13.8,61,0.00,CLR,,0.00,WeatherDisplay:10.37,2013-02-09 20:38:00,
2013-02-09 14:43:00,40.2,27.8,30.23,South,186,4.2,5.8,61,0.00,CLR,,0.00,WeatherDisplay:10.37,2013-02-09 20:43:00,
2013-02-09 14:48:00,40.3,27.9,30.23,South,186,0.9,1.1,61,0.00,CLR,,0.00,WeatherDisplay:10.37,2013-02-09 20:48:00,
2013-02-09 14:53:00,40.3,27.5,30.23,South,180,1.8,1.8,60,0.00,CLR,,0.00,WeatherDisplay:10.37,2013-02-09 20:53:00,
2013-02-09 14:58:00,40.5,27.7,30.23,SE,130,4.2,4.6,60,0.00,CLR,,0.00,WeatherDisplay:10.37,2013-02-09 20:58:00,
2013-02-09 15:03:00,40.9,27.2,30.23,SE,128,10.2,15.0,58,0.00,CLR,,0.00,WeatherDisplay:10.37,2013-02-09 21:03:00,
2013-02-09 15:08:00,41.1,27.0,30.22,SE,140,6.8,8.1,57,0.00,CLR,,0.00,WeatherDisplay:10.37,2013-02-09 21:08:00,
2013-02-09 15:13:00,40.9,26.8,30.22,SSE,159,7.5,9.2,57,0.00,CLR,,0.00,WeatherDisplay:10.37,2013-02-09 21:13:00,
2013-02-09 15:18:00,41.1,27.0,30.22,SE,128,7.2,8.1,57,0.00,CLR,,0.00,WeatherDisplay:10.37,2013-02-09 21:18:00,
2013-02-09 15:23:00,41.1,27.0,30.22,SE,132,5.7,5.8,57,0.00,CLR,,0.00,WeatherDisplay:10.37,2013-02-09 21:23:00,
2013-02-09 15:28:00,41.2,27.1,30.21,SE,131,7.1,9.2,57,0.00,CLR,,0.00,WeatherDisplay:10.37,2013-02-09 21:28:00,
2013-02-09 15:33:00,41.2,26.7,30.21,ESE,113,7.8,8.1,56,0.00,CLR,,0.00,WeatherDisplay:10.37,2013-02-09 21:33:00,
2013-02-09 15:38:00,41.3,26.8,30.20,ESE,104,2.5,5.8,56,0.00,CLR,,0.00,WeatherDisplay:10.37,2013-02-09 21:38:00,
2013-02-09 15:43:00,41.5,27.0,30.20,East,101,9.0,9.2,56,0.00,CLR,,0.00,WeatherDisplay:10.37,2013-02-09 21:43:00,
2013-02-09 15:48:00,41.5,27.0,30.19,SSE,154,3.4,4.6,56,0.00,CLR,,0.00,WeatherDisplay:10.37,2013-02-09 21:48:00,
2013-02-09 15:53:00,41.5,26.5,30.19,SE,136,8.0,9.2,55,0.00,CLR,,0.00,WeatherDisplay:10.37,2013-02-09 21:53:00,
2013-02-09 15:58:00,41.5,26.5,30.19,SE,136,7.4,9.2,55,0.00,CLR,,0.00,WeatherDisplay:10.37,2013-02-09 21:58:00,
2013-02-09 16:03:00,41.5,26.1,30.19,SE,124,8.0,13.8,54,0.00,CLR,,0.00,WeatherDisplay:10.37,2013-02-09 22:03:00,
2013-02-09 16:08:00,41.3,25.9,30.18,ESE,120,4.6,8.1,54,0.00,CLR,,0.00,WeatherDisplay:10.37,2013-02-09 22:08:00,
2013-02-09 16:13:00,41.3,26.3,30.18,SE,126,6.8,6.8,55,0.00,CLR,,0.00,WeatherDisplay:10.37,2013-02-09 22:13:00,
2013-02-09 16:18:00,41.3,25.9,30.18,SE,146,8.8,8.8,54,0.00,CLR,,0.00,WeatherDisplay:10.37,2013-02-09 22:18:00,
2013-02-09 16:23:00,41.3,26.3,30.18,ESE,117,8.0,9.2,55,0.00,CLR,,0.00,WeatherDisplay:10.37,2013-02-09 22:23:00,
2013-02-09 16:28:00,41.3,26.8,30.18,East,94,5.1,5.8,56,0.00,CLR,,0.00,WeatherDisplay:10.37,2013-02-09 22:28:00,
2013-02-09 16:33:00,41.2,26.7,30.17,SSE,151,5.8,8.1,56,0.00,CLR,,0.00,WeatherDisplay:10.37,2013-02-09 22:33:00,
2013-02-09 16:38:00,41.1,26.6,30.17,ESE,115,5.7,5.7,56,0.00,CLR,,0.00,WeatherDisplay:10.37,2013-02-09 22:38:00,
2013-02-09 16:43:00,40.9,26.4,30.17,ESE,123,3.1,3.5,56,0.00,CLR,,0.00,WeatherDisplay:10.37,2013-02-09 22:43:00,
2013-02-09 16:48:00,40.8,26.3,30.17,ESE,121,7.3,9.2,56,0.00,CLR,,0.00,WeatherDisplay:10.37,2013-02-09 22:48:00,
2013-02-09 16:53:00,40.6,26.1,30.17,SE,131,5.8,8.1,56,0.00,CLR,,0.00,WeatherDisplay:10.37,2013-02-09 22:53:00,
2013-02-09 16:58:00,40.5,26.4,30.17,SE,126,6.3,6.3,57,0.00,CLR,,0.00,WeatherDisplay:10.37,2013-02-09 22:58:00,
2013-02-09 17:03:00,40.5,26.4,30.17,ESE,104,4.4,4.5,57,0.00,CLR,,0.00,WeatherDisplay:10.37,2013-02-09 23:03:00,
2013-02-09 17:08:00,40.3,26.3,30.17,SSE,148,5.0,5.8,57,0.00,CLR,,0.00,WeatherDisplay:10.37,2013-02-09 23:08:00,
2013-02-09 17:13:00,40.2,26.2,30.17,SE,133,3.9,4.6,57,0.00,CLR,,0.00,WeatherDisplay:10.37,2013-02-09 23:13:00,
2013-02-09 17:18:00,40.1,26.1,30.17,SE,142,4.4,4.6,57,0.00,CLR,,0.00,WeatherDisplay:10.37,2013-02-09 23:18:00,
2013-02-09 17:23:00,39.9,26.3,30.17,SE,141,0.7,1.1,58,0.00,CLR,,0.00,WeatherDisplay:10.37,2013-02-09 23:23:00,
2013-02-09 17:28:00,39.6,26.0,30.17,SE,140,5.1,5.8,58,0.00,CLR,,0.00,WeatherDisplay:10.37,2013-02-09 23:28:00,
2013-02-09 17:33:00,39.5,25.9,30.17,SE,134,0.0,0.0,58,0.00,CLR,,0.00,WeatherDisplay:10.37,2013-02-09 23:33:00,
2013-02-09 17:38:00,39.2,25.6,30.17,SE,134,0.0,0.0,58,0.00,CLR,,0.00,WeatherDisplay:10.37,2013-02-09 23:38:00,
2013-02-09 17:43:00,38.8,25.7,30.17,SE,134,0.0,0.0,59,0.00,CLR,,0.00,WeatherDisplay:10.37,2013-02-09 23:43:00,
2013-02-09 17:48:00,38.3,25.6,30.17,SE,134,0.0,0.0,60,0.00,CLR,,0.00,WeatherDisplay:10.37,2013-02-09 23:48:00,
2013-02-09 17:53:00,37.9,25.6,30.17,SE,134,0.0,0.0,61,0.00,CLR,,0.00,WeatherDisplay:10.37,2013-02-09 23:53:00,
2013-02-09 17:58:00,37.5,25.3,30.17,SE,134,0.0,0.0,61,0.00,CLR,,0.00,WeatherDisplay:10.37,2013-02-09 23:58:00,
2013-02-09 18:03:00,37.0,25.2,30.17,SE,134,0.0,0.0,62,0.00,CLR,,0.00,WeatherDisplay:10.37,2013-02-10 00:03:00,
2013-02-09 18:08:00,37.0,25.6,30.17,SE,134,0.0,0.0,63,0.00,CLR,,0.00,WeatherDisplay:10.37,2013-02-10 00:08:00,
2013-02-09 18:13:00,37.0,25.2,30.16,SE,134,0.0,0.0,62,0.00,CLR,,0.00,WeatherDisplay:10.37,2013-02-10 00:13:00,
2013-02-09 18:18:00,36.9,25.5,30.16,SE,134,1.4,1.5,63,0.00,CLR,,0.00,WeatherDisplay:10.37,2013-02-10 00:18:00,
2013-02-09 18:23:00,36.9,25.5,30.15,SE,134,0.0,1.1,63,0.00,CLR,,0.00,WeatherDisplay:10.37,2013-02-10 00:23:00,
2013-02-09 18:28:00,36.8,25.4,30.15,SE,134,0.5,1.1,63,0.00,CLR,,0.00,WeatherDisplay:10.37,2013-02-10 00:28:00,
2013-02-09 18:33:00,36.5,25.5,30.15,SE,134,0.0,1.1,64,0.00,CLR,,0.00,WeatherDisplay:10.37,2013-02-10 00:33:00,
2013-02-09 18:38:00,35.9,24.9,30.15,SE,134,0.0,0.0,64,0.00,CLR,,0.00,WeatherDisplay:10.37,2013-02-10 00:38:00,
2013-02-09 18:43:00,35.5,24.9,30.15,SE,134,0.0,0.0,65,0.00,CLR,,0.00,WeatherDisplay:10.37,2013-02-10 00:43:00,
2013-02-09 18:48:00,35.2,25.0,30.15,SE,134,0.0,0.0,66,0.00,CLR,,0.00,WeatherDisplay:10.37,2013-02-10 00:48:00,
2013-02-09 18:53:00,35.3,25.1,30.15,SE,134,1.3,4.6,66,0.00,CLR,,0.00,WeatherDisplay:10.37,2013-02-10 00:53:00,
2013-02-09 18:58:00,35.6,25.4,30.15,SE,132,4.8,5.8,66,0.00,CLR,,0.00,WeatherDisplay:10.37,2013-02-10 00:58:00,
2013-02-09 19:03:00,35.8,25.5,30.16,SE,133,0.8,3.5,66,0.00,CLR,,0.00,WeatherDisplay:10.37,2013-02-10 01:03:00,
2013-02-09 19:08:00,35.8,25.5,30.16,SE,133,0.2,5.8,66,0.00,CLR,,0.00,WeatherDisplay:10.37,2013-02-10 01:08:00,
2013-02-09 19:13:00,35.8,25.5,30.16,SE,133,0.0,1.1,66,0.00,CLR,,0.00,WeatherDisplay:10.37,2013-02-10 01:13:00,
2013-02-09 19:18:00,35.6,25.4,30.16,SE,133,0.6,1.1,66,0.00,CLR,,0.00,WeatherDisplay:10.37,2013-02-10 01:18:00,
2013-02-09 19:23:00,35.5,25.3,30.15,SE,133,0.2,1.1,66,0.00,CLR,,0.00,WeatherDisplay:10.37,2013-02-10 01:23:00,
2013-02-09 19:28:00,35.0,24.8,30.15,SE,132,0.0,0.0,66,0.00,CLR,,0.00,WeatherDisplay:10.37,2013-02-10 01:28:00,
2013-02-09 19:33:00,34.7,25.2,30.15,SE,133,0.0,0.0,68,0.00,CLR,,0.00,WeatherDisplay:10.37,2013-02-10 01:33:00,
2013-02-09 19:38:00,34.4,25.3,30.15,SE,133,0.1,1.1,69,0.00,CLR,,0.00,WeatherDisplay:10.37,2013-02-10 01:38:00,
2013-02-09 19:43:00,34.3,25.2,30.15,SE,132,1.1,1.5,69,0.00,CLR,,0.00,WeatherDisplay:10.37,2013-02-10 01:43:00,
2013-02-09 19:48:00,34.3,25.5,30.15,SE,132,0.9,3.0,70,0.00,CLR,,0.00,WeatherDisplay:10.37,2013-02-10 01:48:00,
2013-02-09 19:53:00,34.4,25.6,30.15,SE,126,2.5,4.6,70,0.00,CLR,,0.00,WeatherDisplay:10.37,2013-02-10 01:53:00,
2013-02-09 19:58:00,34.7,25.9,30.14,ESE,103,5.8,9.2,70,0.00,CLR,,0.00,WeatherDisplay:10.37,2013-02-10 01:58:00,
2013-02-09 20:03:00,35.2,26.0,30.14,ESE,121,7.3,9.2,69,0.00,CLR,,0.00,WeatherDisplay:10.37,2013-02-10 02:03:00,
2013-02-09 20:08:00,35.5,26.3,30.14,ESE,111,7.6,9.2,69,0.00,CLR,,0.00,WeatherDisplay:10.37,2013-02-10 02:08:00,
2013-02-09 20:13:00,35.6,26.4,30.14,ESE,116,8.8,10.4,69,0.00,CLR,,0.00,WeatherDisplay:10.37,2013-02-10 02:13:00,
2013-02-09 20:18:00,35.8,26.3,30.14,SE,127,6.6,6.6,68,0.00,CLR,,0.00,WeatherDisplay:10.37,2013-02-10 02:18:00,
2013-02-09 20:23:00,35.8,26.3,30.14,ESE,123,7.1,7.1,68,0.00,CLR,,0.00,WeatherDisplay:10.37,2013-02-10 02:23:00,
2013-02-09 20:28:00,35.8,26.3,30.14,ESE,116,3.7,9.2,68,0.00,CLR,,0.00,WeatherDisplay:10.37,2013-02-10 02:28:00,
2013-02-09 20:33:00,35.8,26.6,30.14,ESE,120,5.2,5.2,69,0.00,CLR,,0.00,WeatherDisplay:10.37,2013-02-10 02:33:00,
2013-02-09 20:38:00,35.8,26.6,30.14,SSE,157,6.5,8.1,69,0.00,CLR,,0.00,WeatherDisplay:10.37,2013-02-10 02:38:00,
2013-02-09 20:44:00,35.8,26.6,30.13,ESE,112,7.2,9.0,69,0.00,CLR,,0.00,WeatherDisplay:10.37,2013-02-10 02:44:00,
2013-02-09 20:49:00,35.9,26.4,30.13,SE,137,6.4,8.1,68,0.00,CLR,,0.00,WeatherDisplay:10.37,2013-02-10 02:49:00,
2013-02-09 20:54:00,35.9,26.4,30.13,SE,130,9.5,15.0,68,0.00,CLR,,0.00,WeatherDisplay:10.37,2013-02-10 02:54:00,
2013-02-09 20:59:00,35.9,26.4,30.13,East,99,9.5,9.5,68,0.00,CLR,,0.00,WeatherDisplay:10.37,2013-02-10 02:59:00,
2013-02-09 21:04:00,35.9,26.4,30.13,East,101,6.8,8.1,68,0.00,CLR,,0.00,WeatherDisplay:10.37,2013-02-10 03:04:00,
2013-02-09 21:09:00,35.9,26.4,30.13,SE,129,13.1,13.1,68,0.00,CLR,,0.00,WeatherDisplay:10.37,2013-02-10 03:09:00,
2013-02-09 21:14:00,35.9,26.0,30.12,ESE,103,8.4,9.2,67,0.00,CLR,,0.00,WeatherDisplay:10.37,2013-02-10 03:14:00,
2013-02-09 21:19:00,35.9,26.0,30.12,SE,139,6.7,8.1,67,0.00,CLR,,0.00,WeatherDisplay:10.37,2013-02-10 03:19:00,
2013-02-09 21:24:00,35.8,25.9,30.12,East,101,8.6,9.2,67,0.00,CLR,,0.00,WeatherDisplay:10.37,2013-02-10 03:24:00,
2013-02-09 21:29:00,35.8,25.9,30.11,ESE,119,6.8,6.8,67,0.00,CLR,,0.00,WeatherDisplay:10.37,2013-02-10 03:29:00,
2013-02-09 21:34:00,35.9,26.0,30.11,SE,137,12.7,15.0,67,0.00,CLR,,0.00,WeatherDisplay:10.37,2013-02-10 03:34:00,
2013-02-09 21:39:00,35.9,25.6,30.10,ESE,103,9.0,15.0,66,0.00,CLR,,0.00,WeatherDisplay:10.37,2013-02-10 03:39:00,
2013-02-09 21:44:00,35.9,25.6,30.10,SSE,157,6.6,13.5,66,0.00,CLR,,0.00,WeatherDisplay:10.37,2013-02-10 03:44:00,
2013-02-09 21:49:00,35.9,25.6,30.10,SE,140,10.5,15.0,66,0.00,CLR,,0.00,WeatherDisplay:10.37,2013-02-10 03:49:00,
2013-02-09 21:54:00,35.9,25.6,30.10,SE,128,9.4,10.4,66,0.00,CLR,,0.00,WeatherDisplay:10.37,2013-02-10 03:54:00,
2013-02-09 21:59:00,36.0,25.4,30.09,ESE,104,10.1,15.0,65,0.00,CLR,,0.00,WeatherDisplay:10.37,2013-02-10 03:59:00,
2013-02-09 22:04:00,36.0,25.4,30.09,SSE,155,9.4,13.8,65,0.00,CLR,,0.00,WeatherDisplay:10.37,2013-02-10 04:04:00,
2013-02-09 22:09:00,36.0,25.0,30.09,ESE,115,9.8,10.4,64,0.00,CLR,,0.00,WeatherDisplay:10.37,2013-02-10 04:09:00,
2013-02-09 22:14:00,36.0,25.0,30.09,ESE,109,12.3,13.8,64,0.00,CLR,,0.00,WeatherDisplay:10.37,2013-02-10 04:14:00,
2013-02-09 22:19:00,36.0,25.0,30.08,SSE,151,7.7,7.7,64,0.00,CLR,,0.00,WeatherDisplay:10.37,2013-02-10 04:19:00,
2013-02-09 22:24:00,36.0,25.0,30.08,SE,139,8.5,10.4,64,0.00,CLR,,0.00,WeatherDisplay:10.37,2013-02-10 04:24:00,
2013-02-09 22:29:00,35.9,25.3,30.08,SSE,153,7.6,15.0,65,0.00,CLR,,0.00,WeatherDisplay:10.37,2013-02-10 04:29:00,
2013-02-09 22:34:00,36.0,25.0,30.09,SSE,163,8.8,13.8,64,0.00,CLR,,0.00,WeatherDisplay:10.37,2013-02-10 04:34:00,
2013-02-09 22:39:00,36.0,25.0,30.09,SSE,147,6.5,8.1,64,0.00,CLR,,0.00,WeatherDisplay:10.37,2013-02-10 04:39:00,
2013-02-09 22:44:00,36.0,25.0,30.09,SSE,149,12.0,16.1,64,0.00,CLR,,0.00,WeatherDisplay:10.37,2013-02-10 04:44:00,
2013-02-09 22:49:00,36.0,25.0,30.09,South,175,3.0,3.5,64,0.00,CLR,,0.00,WeatherDisplay:10.37,2013-02-10 04:49:00,
2013-02-09 22:54:00,36.0,25.0,30.09,SSE,153,3.1,8.1,64,0.00,CLR,,0.00,WeatherDisplay:10.37,2013-02-10 04:54:00,
2013-02-09 22:59:00,36.0,25.0,30.09,SSE,149,3.2,3.5,64,0.00,CLR,,0.00,WeatherDisplay:10.37,2013-02-10 04:59:00,
2013-02-09 23:00:00,36.0,25.0,30.08,SSE,149,4.3,4.3,64,0.00,CLR,,0.00,WeatherDisplay:10.37,2013-02-10 05:00:00,
2013-02-09 23:05:00,35.9,24.9,30.08,SSE,148,6.7,6.7,64,0.00,CLR,,0.00,WeatherDisplay:10.37,2013-02-10 05:05:00,
2013-02-09 23:10:00,35.9,24.9,30.08,SE,143,3.5,4.6,64,0.00,CLR,,0.00,WeatherDisplay:10.37,2013-02-10 05:10:00,
2013-02-09 23:15:00,35.9,24.9,30.08,SE,132,0.4,4.6,64,0.00,CLR,,0.00,WeatherDisplay:10.37,2013-02-10 05:15:00,
2013-02-09 23:20:00,35.9,24.9,30.08,SE,131,4.0,4.6,64,0.00,CLR,,0.00,WeatherDisplay:10.37,2013-02-10 05:20:00,
2013-02-09 23:25:00,35.9,24.9,30.08,SE,128,1.6,1.6,64,0.00,CLR,,0.00,WeatherDisplay:10.37,2013-02-10 05:25:00,
2013-02-09 23:30:00,35.9,24.9,30.08,ESE,109,0.2,1.5,64,0.00,CLR,,0.00,WeatherDisplay:10.37,2013-02-10 05:30:00,
2013-02-09 23:35:00,35.9,24.9,30.08,SE,136,1.5,3.5,64,0.00,CLR,,0.00,WeatherDisplay:10.37,2013-02-10 05:35:00,
2013-02-09 23:40:00,35.9,24.9,30.07,ESE,119,3.8,3.8,64,0.00,CLR,,0.00,WeatherDisplay:10.37,2013-02-10 05:40:00,
2013-02-09 23:45:00,35.9,24.9,30.07,SE,146,5.1,5.1,64,0.00,CLR,,0.00,WeatherDisplay:10.37,2013-02-10 05:45:00,
2013-02-09 23:50:00,35.9,24.9,30.07,SE,132,2.9,4.6,64,0.00,CLR,,0.00,WeatherDisplay:10.37,2013-02-10 05:50:00,
2013-02-09 23:55:00,35.9,24.9,30.07,SSE,149,4.7,8.1,64,0.00,CLR,,0.00,WeatherDisplay:10.37,2013-02-10 05:55:00,